Location: Austin
(30.3000°N, 97.7500°W)
Time: 23:43:15
(UTC-05:00)

USA 229 DEB - Pass Details

Date: 05 September 2024
Orbit: 881 x 1330 km, 63.4° (Epoch: 31 August)

Event Time Altitude Azimuth Distance (km) Brightness Sun altitude
Rises 21:56:27 0° 334° (NNW) 4,080 7.5 -27.3°
Reaches altitude 10° 21:59:09 10° 338° (NNW) 3,171 6.7 -27.8°
Maximum altitude 22:06:52 64° 59° (ENE) 1,409 4.0 -29.3°
Enters shadow 22:07:35 62° 85° (E) 1,441 4.0 -29.4°
